Location: Kimberly
(42.5380°N, 114.3640°W)
Time: 22:01:31
(UTC-06:00)

X-37B - Pass Details

Date: 07 August 2021
Orbit: 381 x 393 km, 45.0° (Epoch: 29 August)

Event Time Altitude Azimuth Distance (km) Brightness Sun altitude
Exits shadow 04:14:39 51° 44° (NE) 487 1.4 -21.6°
Drops below altitude 10° 04:17:12 10° 72° (ENE) 1,394 4.2 -21.3°
Sets 04:19:16 0° 75° (ENE) 2,248 5.3 -21.1°
